This is the latest recevied weather packets stored in our database for station/object VK3CG. If no packets are shown the sender has not sent any weather packets the latest 10 day(s).
| Time | Temp. | Humidity | Pressure | Rain* | Wind** | Luminosity | Snow |
|---|---|---|---|---|---|---|---|
| 1777224646 | 6.67° C | 68% | 1033.6 hPa | 0 mm | - | 0 W/m² | - |
| 1777223745 | 7.22° C | 68% | 1033.6 hPa | 0 mm | - | 0 W/m² | - |
| 1777222850 | 7.22° C | 68% | 1033.7 hPa | 0 mm | - | 0 W/m² | - |
| 1777221948 | 7.22° C | 68% | 1033.6 hPa | 0 mm | - | 0 W/m² | - |
| 1777221042 | 6.67° C | 67% | 1033.6 hPa | 0 mm | - | 0 W/m² | - |
| 1777220142 | 6.67° C | 67% | 1033.6 hPa | 0 mm | - | 0 W/m² | - |
| 1777219238 | 7.22° C | 66% | 1033.5 hPa | 0 mm | - | 0 W/m² | - |
| 1777218336 | 8.33° C | 66% | 1033 hPa | 0 mm | - | 0 W/m² | - |
| 1777217435 | 8.89° C | 67% | 1032.8 hPa | 0 mm | - | 0 W/m² | - |
| 1777216535 | 8.89° C | 67% | 1033 hPa | 0 mm | - | 0 W/m² | - |
| 1777215629 | 8.89° C | 66% | 1033.5 hPa | 0 mm | - | 0 W/m² | - |
| 1777214728 | 8.89° C | 66% | 1033.6 hPa | 0 mm | - | 0 W/m² | - |
| 1777213825 | 8.33° C | 66% | 1033.8 hPa | 0 mm | - | 0 W/m² | - |
| 1777212924 | 8.33° C | 64% | 1033.7 hPa | 0 mm | - | 0 W/m² | - |
| 1777212021 | 7.78° C | 64% | 1033.5 hPa | 0 mm | - | 0 W/m² | - |
| 1777211121 | 7.78° C | 63% | 1033.3 hPa | 0 mm | - | 0 W/m² | - |
| 1777210215 | 8.89° C | 63% | 1033.3 hPa | 0 mm | - | 0 W/m² | - |
| 1777209314 | 8.89° C | 63% | 1032.9 hPa | 0 mm | - | 0 W/m² | - |
| 1777208413 | 8.89° C | 63% | 1032.9 hPa | 0 mm | - | 0 W/m² | - |
| 1777207511 | 9.44° C | 63% | 1032.7 hPa | 0 mm | - | 0 W/m² | - |
| 1777206608 | 10° C | 62% | 1032.6 hPa | 0 mm | - | 0 W/m² | - |
| 1777205716 | 10.56° C | 62% | 1032.6 hPa | 0 mm | - | 0 W/m² | - |
| 1777204804 | 10.56° C | 62% | 1032.6 hPa | 0 mm | - | 0 W/m² | - |
| 1777203903 | 11.11° C | 62% | 1032.5 hPa | 0 mm | - | 0 W/m² | - |
| 1777203002 | 11.11° C | 62% | 1032.8 hPa | 0 mm | - | 0 W/m² | - |
* Rain latest hour (hover to see other rain measurements)
** Current wind speed in m/s (hover to see current wind gust speed)